Regional Weather Roundup
Issued by NWS

Home | Current Version | Previous Version | Text Only | Print | Product List | Glossary Off
Versions: 1 2 3 4 5 6 7 8 9 10 11 12 13 14 15 16 17 18 19 20 21 22 23 24 25 26 27 28 29 30 31 32 33 34 35 36 37 38 39 40 41 42 43 44 45 46 47 48 49 50

696
ASUS43 KIND 222009
RWRIN

WEATHER ROUNDUP FOR INDIANA
NATIONAL WEATHER SERVICE INDIANAPOLIS IN
400 PM EDT SUN OCT 22 2017

NOTE: "FAIR" INDICATES FEW OR NO CLOUDS BELOW 12,000 FEET WITH NO
SIGNIFICANT WEATHER AND/OR OBSTRUCTIONS TO VISIBILITY.

* - STATION DOES NOT REPORT WEATHER SUCH AS PRECIPITATION OR FOG.

+ - STATION NOT QUALITY CONTROLLED BY THE NATIONAL WEATHER SERVICE.
    USE DATA WITH CAUTION...ESPECIALLY DEWPOINT AND RELATIVE
    HUMIDITY OBSERVATIONS.

INZ001>003-010>013-019-020-222100-
NORTHWEST INDIANA

CITY           SKY/WX    TMP DP  RH WIND       PRES   REMARKS
GARY /AIRPORT/ CLOUDY    72  61  68 S12G23    29.94R
KNOX *+        CLOUDY    73  59  60 S12       29.97R
LA PORTE +     CLOUDY    72  58  62 S13G18    29.97S
MICHIGAN CITY+ CLOUDY    72  59  64 S7        29.96R
MONTICELLO +   CLOUDY    75  57  53 S17G24    29.97S
RENSSELAER +   CLOUDY    73  52  46 S21G28    29.97R
VALPARAISO     CLOUDY    74  60  61 S20G26    29.96S

$$

LMZ046-743>745-222100-
SOUTHERN LAKE MICHIGAN

STATION/POSITION TIME  TEMP    WIND        PRES    WAVE
                       AIR SEA DIR/SP/G            HT
                 (UTC) (F)     (DEG/KT/KT) (MB)    (FT)
BURNS HARBOR     1940   71     190/ 16/ 22 1014.2R
MICHIGAN CITY    1940   71     190/ 23/ 26   N/A
5NW MICH CITY    2000   68 58  200/ 16/ 25   N/A     2

$$

INZ004-005-014>016-021>024-222100-
NORTH CENTRAL INDIANA

CITY           SKY/WX    TMP DP  RH WIND       PRES   REMARKS
ELKHART        CLOUDY    73  57  56 S10G23    29.98
GOSHEN         CLOUDY    75  56  51 S20G25    29.98F
LOGANSPORT +   CLOUDY    75  59  57 S14       29.99S
SOUTH BEND     CLOUDY    73  60  63 S15       29.97S
WARSAW +       PTSUNNY   73  59  60 S6        30.00S

$$

INZ006>009-017-018-025>027-222100-
NORTHEAST INDIANA

CITY           SKY/WX    TMP DP  RH WIND       PRES   REMARKS
AUBURN +       MOSUNNY   77  54  44 S3        30.03S
FORT WAYNE     PTSUNNY   79  57  46 S18G25    30.02F
HUNTINGTON +   SUNNY     76  56  48 S14       30.01F
KENDALLVILLE + MOSUNNY   75  58  55 S14G20    30.02F

$$

INZ028-029-035-036-043>045-051>053-222100-
WEST CENTRAL INDIANA

CITY           SKY/WX    TMP DP  RH WIND       PRES   REMARKS
CRAWFORDSVL +  CLOUDY    75  57  53 S21       30.00R
GREENCASTLE +  CLOUDY    73  57  56 S13       30.02R
LAFAYETTE      CLOUDY    75  59  57 S14G22    29.97S
TERRE HAUTE    CLOUDY    77  57  50 S17G29    29.99R

$$

INZ030>032-037>040-046>048-054>057-064-065-222100-
CENTRAL INDIANA

CITY           SKY/WX    TMP DP  RH WIND       PRES   REMARKS
CP ATTERBURY + CLOUDY    75  55  50 S16G22    30.06R
COLUMBUS       PTSUNNY   75  52  43 S18G26    30.06R
FISHERS *+     PTSUNNY   77  63  61 S18       30.04R
FRANKFORT +    CLOUDY    78  61  54 S12G20    30.01F
GREENWOOD *+   PTSUNNY   78  59  51 S14G20    30.05R
INDIANAPOLIS   PTSUNNY   76  58  53 S23       30.02S
-EAGLE CREEK   PTSUNNY   77  57  50 S10G22    30.02R
KOKOMO +       PTSUNNY   76  59  55 S17G24    30.02R
MT COMFORT *+  SUNNY     75  63  64 S12G24    30.04S
SHELBYVILLE    CLOUDY    77  56  48 S16G25    30.05S
ZIONSVILLE +   CLOUDY    74  58  57 S14G24    30.03R

$$

INZ033-034-041-042-049-050-058-059-222100-
EAST CENTRAL INDIANA

CITY           SKY/WX    TMP DP  RH WIND       PRES   REMARKS
MUNCIE         SUNNY     79  56  45 S13G24    30.03F

$$

INZ060-061-067>069-081>083-085>088-222100-
SOUTHWEST INDIANA

CITY           SKY/WX    TMP DP  RH WIND       PRES   REMARKS
EVANSVILLE     CLOUDY    76  59  55 S10       30.01F
HUNTINGBURG +  CLOUDY    75  60  59 SE14G20   30.03F
WASHINGTON +   MOSUNNY   78  55  44 S16G28    30.01F

$$

INZ062-063-066-070>080-084-089>092-222100-
SOUTH CENTRAL AND SOUTHEAST INDIANA

CITY           SKY/WX    TMP DP  RH WIND       PRES   REMARKS
BEDFORD +      MOSUNNY   79  55  44 S10G18    30.04F
BLOOMINGTON    CLOUDY    76  57  51 S17       30.03S
MADISON *+     CLOUDY    75  52  43 S8G16     30.11S
NORTH VERNON + MOSUNNY   75  55  50 S17G23    30.08F
SEYMOUR +      CLOUDY    77  55  47 S14G23    30.07R

$$





USA.gov is the U.S. government's official web portal to all federal, state and local government web resources and services.